Location: Newark
(35.8833°N, 14.5000°E)
Time: 05:22:39
(UTC+00:00)

Altair - Pass Details

Date: 23 November 2019
Orbit: 1502 x 1682 km, 47.2° (Epoch: 12 December)

Event Time Altitude Azimuth Distance (km) Brightness Sun altitude
Rises 04:26:48 0° 292° (WNW) 4,634 - -15.9°
Reaches altitude 10° 04:30:04 10° 299° (WNW) 3,653 - -15.3°
Exits shadow 04:31:47 16° 305° (NW) 3,168 8.6 -14.9°
Maximum altitude 04:38:42 43° 9° (N) 2,020 8.1 -13.6°
Drops below altitude 10° 04:47:29 10° 79° (E) 3,720 10.6 -11.9°
Sets 04:50:49 0° 87° (E) 4,726 11.5 -11.2°
